Du Bois, PA

3:23 AM EDT on April 24, 2018 (GMT -0400)
Du Bois-Jefferson County

Weather History for KDUJ - March, 2014

Change the Weather History Date:

Thursday, March 6, 2014

  Actual Average Record
Temperature  
Mean Temperature 19 °F 31 °F  
Max Temperature 29 °F 40 °F 57 °F (1987)
Min Temperature 8 °F 22 °F -7 °F (2015)
Degree Days  
Heating Degree Days 46 34  
Month to date heating degree days 269 207  
Since 1 July heating degree days 5352 5230  
Cooling Degree Days 0 0  
Month to date cooling degree days 0 0  
Year to date cooling degree days 0 0  
Moisture  
Dew Point 2 °F    
Average Humidity 51    
Maximum Humidity 67    
Minimum Humidity 34    
Precipitation  
Precipitation 0.00 in 0.10 in 1.48 in (1999)
Month to date precipitation 0.06 0.59  
Year to date precipitation 6.06  
Sea Level Pressure  
Sea Level Pressure 30.42 in    
Wind  
Wind Speed 11 mph (ESE)    
Max Wind Speed 20 mph    
Max Gust Speed 26 mph    
Visibility 10 miles    
Events      
T = Trace of Precipitation, MM = Missing Value Source: NWS Daily Summary

Daily Weather History Graph

Daily Weather History Graph

Search for Another Location

Airport or City:

Astronomy

Mar. 06, 2014 Rise Set
Actual Time 6:42 AM EST 6:12 PM EST
Civil Twilight 6:14 AM EST 6:39 PM EST
Nautical Twilight 5:42 AM EST 7:11 PM EST
Astronomical Twilight 5:10 AM EST 7:43 PM EST
Moon 9:45 AM EST (3/6) No Moon Set
Length of Visible Light 12h 25m
Length of Day
11h 30m
Waxing Crescent, 32% of the Moon is Illuminated
Mar 6
Waxing Crescent
Mar 8
First Quarter
Mar 16
Full
Mar 23
Last Quarter
Mar 30
New

Hourly Weather History & Observations

Time (EST) Temp. Windchill Dew Point Humidity Pressure Visibility Wind Dir Wind Speed Gust Speed Precip Events Conditions
12:56 AM 12.9 °F -0.2 °F -0.0 °F 56% 30.47 in 10.0 mi ENE 10.4 mph - N/A   Clear
1:56 AM 10.9 °F -1.8 °F -0.9 °F 59% 30.48 in 10.0 mi ENE 9.2 mph - N/A   Clear
2:56 AM 9.0 °F -3.2 °F -2.0 °F 61% 30.47 in 10.0 mi ENE 8.1 mph - N/A   Clear
3:56 AM 9.0 °F -4.2 °F -2.9 °F 59% 30.46 in 10.0 mi East 9.2 mph - N/A   Clear
4:56 AM 8.1 °F -3.2 °F -2.9 °F 61% 30.47 in 10.0 mi East 6.9 mph - N/A   Clear
5:56 AM 9.0 °F -3.2 °F -4.0 °F 56% 30.48 in 10.0 mi East 8.1 mph - N/A   Clear
6:56 AM 9.0 °F -4.2 °F -5.1 °F 53% 30.50 in 10.0 mi East 9.2 mph - N/A   Clear
7:56 AM 10.9 °F -1.8 °F -5.1 °F 49% 30.51 in 10.0 mi East 9.2 mph - N/A   Clear
8:56 AM 12.9 °F -1.6 °F -2.0 °F 51% 30.52 in 10.0 mi ESE 12.7 mph - N/A   Clear
9:56 AM 18.0 °F 4.2 °F 1.0 °F 48% 30.50 in 10.0 mi ESE 13.8 mph 25.3 mph N/A   Clear
10:56 AM 19.9 °F 5.7 °F 1.9 °F 46% 30.48 in 10.0 mi SE 16.1 mph 23.0 mph N/A   Clear
11:56 AM 23.0 °F 11.7 °F 3.0 °F 42% 30.45 in 10.0 mi ESE 11.5 mph 25.3 mph N/A   Clear
12:56 PM 26.1 °F 14.5 °F 3.9 °F 39% 30.42 in 10.0 mi ESE 13.8 mph 21.9 mph N/A   Clear
1:56 PM 28.0 °F 19.3 °F 5.0 °F 38% 30.39 in 10.0 mi ESE 9.2 mph 18.4 mph N/A   Clear
2:56 PM 28.9 °F 18.2 °F 3.9 °F 35% 30.39 in 10.0 mi ESE 13.8 mph - N/A   Clear
3:56 PM 28.9 °F 18.6 °F 3.9 °F 35% 30.36 in 10.0 mi SE 12.7 mph - N/A   Clear
4:56 PM 28.9 °F 19.2 °F 3.9 °F 35% 30.35 in 10.0 mi SE 11.5 mph - N/A   Clear
5:56 PM 27.0 °F 17.3 °F 6.1 °F 41% 30.35 in 10.0 mi ESE 10.4 mph - N/A   Clear
6:56 PM 25.0 °F 13.6 °F 7.0 °F 46% 30.36 in 10.0 mi ESE 12.7 mph - N/A   Clear
7:56 PM 24.1 °F 13.1 °F 7.0 °F 48% 30.35 in 10.0 mi ESE 11.5 mph 20.7 mph N/A   Clear
8:56 PM 23.0 °F 12.4 °F 7.0 °F 50% 30.35 in 10.0 mi ESE 10.4 mph - N/A   Clear
9:56 PM 23.0 °F 11.1 °F 8.1 °F 53% 30.32 in 10.0 mi ESE 12.7 mph - N/A   Clear
10:56 PM 21.9 °F 11.7 °F 8.1 °F 55% 30.30 in 10.0 mi ESE 9.2 mph - N/A   Clear
11:56 PM 21.0 °F 9.9 °F 8.1 °F 57% 30.27 in 10.0 mi ESE 10.4 mph - N/A   Clear